When you browse on this site, cookies collect data to enhance your experience and personalize the content and advertising you see.
Visit our Privacy Policy to learn more. By continuing to use the site, you agree to this use of cookies and data.
  • In Netherlands
  • List of Countries
  • For 7 days
  • Water Temperature
  • Satellite Maps
  • Weather Map
  • Weather Widgets
  • user-avatar
    Login

    Hourly Weather Oran

    Today, 24 June, Monday

    Time Temperature Precipitation Wind Pressure Humidity
    00:00 +21°C° 0 mm 2 mps 750 mmHg 88%
    01:00 +21°C° 0 mm 2 mps 749 mmHg 88%
    02:00 +21°C° 0 mm 2 mps 749 mmHg 89%
    03:00 +21°C° 0 mm 2 mps 749 mmHg 89%
    04:00 +21°C° 0 mm 2 mps 749 mmHg 85%
    05:00 +22°C° 0 mm 3 mps 749 mmHg 81%
    06:00 +23°C° 0 mm 4 mps 749 mmHg 74%
    07:00 +24°C° 0 mm 3 mps 749 mmHg 70%
    08:00 +25°C° 0 mm 3 mps 749 mmHg 66%
    09:00 +26°C° 0 mm 2 mps 750 mmHg 61%
    10:00 +27°C° 0 mm 3 mps 750 mmHg 58%
    11:00 +28°C° 0 mm 3 mps 749 mmHg 55%
    12:00 +29°C° 0 mm 4 mps 749 mmHg 51%
    13:00 +29°C° 0 mm 4 mps 749 mmHg 53%
    14:00 +29°C° 0 mm 4 mps 749 mmHg 54%
    15:00 +29°C° 0 mm 4 mps 748 mmHg 55%
    16:00 +28°C° 0 mm 4 mps 749 mmHg 58%
    17:00 +27°C° 0 mm 3 mps 749 mmHg 61%
    18:00 +26°C° 0 mm 3 mps 749 mmHg 64%
    19:00 +25°C° 0 mm 2 mps 750 mmHg 69%
    20:00 +24°C° 0 mm 2 mps 750 mmHg 75%
    21:00 +23°C° 0 mm 1 mps 751 mmHg 80%
    22:00 +23°C° 0 mm 1 mps 751 mmHg 82%
    23:00 +22°C° 0 mm 1 mps 751 mmHg 84%

    Tomorrow, 25 June, Tuesday

    Time Temperature Precipitation Wind Pressure Humidity
    00:00 +21°C° 0 mm 2 mps 751 mmHg 86%
    01:00 +21°C° 0 mm 2 mps 750 mmHg 88%
    02:00 +21°C° 0 mm 1 mps 750 mmHg 89%
    03:00 +21°C° 0 mm 1 mps 750 mmHg 91%
    04:00 +21°C° 0 mm 1 mps 750 mmHg 89%
    05:00 +20°C° 0 mm 0 mps 750 mmHg 87%
    06:00 +20°C° 0 mm 0 mps 751 mmHg 85%
    07:00 +21°C° 0 mm 0 mps 751 mmHg 76%
    08:00 +25°C° 0 mm 1 mps 751 mmHg 68%
    09:00 +27°C° 0 mm 1 mps 751 mmHg 59%
    10:00 +28°C° 0 mm 2 mps 751 mmHg 54%
    11:00 +30°C° 0 mm 3 mps 751 mmHg 49%
    12:00 +32°C° 0 mm 4 mps 750 mmHg 45%
    13:00 +32°C° 0 mm 4 mps 750 mmHg 46%
    14:00 +32°C° 0 mm 5 mps 750 mmHg 48%
    15:00 +32°C° 0 mm 5 mps 749 mmHg 49%
    16:00 +30°C° 0 mm 5 mps 749 mmHg 54%
    17:00 +29°C° 0 mm 5 mps 749 mmHg 58%
    18:00 +28°C° 0 mm 4 mps 749 mmHg 63%
    19:00 +27°C° 0 mm 4 mps 750 mmHg 69%
    20:00 +25°C° 0 mm 3 mps 750 mmHg 74%
    21:00 +24°C° 0 mm 2 mps 751 mmHg 80%
    22:00 +24°C° 0 mm 2 mps 750 mmHg 83%
    23:00 +23°C° 0 mm 2 mps 750 mmHg 87%

    Day after tomorrow, 26 June, Wednesday

    Time Temperature Precipitation Wind Pressure Humidity
    00:00 +23°C° 0 mm 1 mps 750 mmHg 90%
    01:00 +23°C° 0 mm 2 mps 750 mmHg 90%
    02:00 +23°C° 0 mm 2 mps 750 mmHg 89%
    03:00 +23°C° 0 mm 2 mps 750 mmHg 89%
    04:00 +23°C° 0 mm 2 mps 751 mmHg 87%
    05:00 +23°C° 0 mm 2 mps 751 mmHg 84%
    06:00 +24°C° 0 mm 2 mps 751 mmHg 82%
    07:00 +25°C° 0 mm 2 mps 751 mmHg 74%
    08:00 +26°C° 0 mm 2 mps 751 mmHg 67%
    09:00 +28°C° 0 mm 2 mps 751 mmHg 59%
    10:00 +29°C° 0 mm 3 mps 751 mmHg 56%
    11:00 +30°C° 0 mm 3 mps 751 mmHg 53%
    12:00 +31°C° 0 mm 3 mps 751 mmHg 49%
    13:00 +31°C° 0 mm 3 mps 751 mmHg 50%
    14:00 +31°C° 0 mm 3 mps 751 mmHg 50%
    15:00 +31°C° 0 mm 3 mps 750 mmHg 50%
    16:00 +31°C° 0 mm 3 mps 750 mmHg 51%
    17:00 +30°C° 0 mm 2 mps 750 mmHg 51%
    18:00 +30°C° 0 mm 1 mps 750 mmHg 52%
    19:00 +28°C° 0 mm 2 mps 750 mmHg 60%
    20:00 +27°C° 0 mm 2 mps 750 mmHg 67%
    21:00 +25°C° 0 mm 2 mps 751 mmHg 75%
    22:00 +24°C° 0 mm 2 mps 751 mmHg 80%
    23:00 +24°C° 0 mm 3 mps 751 mmHg 85%

    27 June, Thursday

    Time Temperature Precipitation Wind Pressure Humidity
    00:00 +22°C° 0 mm 3 mps 751 mmHg 90%
    01:00 +22°C° 0 mm 3 mps 750 mmHg 88%
    02:00 +22°C° 0 mm 3 mps 750 mmHg 87%
    03:00 +23°C° 0 mm 4 mps 750 mmHg 86%
    04:00 +23°C° 0 mm 4 mps 751 mmHg 85%
    05:00 +23°C° 0 mm 4 mps 751 mmHg 84%
    06:00 +23°C° 0 mm 4 mps 751 mmHg 83%
    07:00 +25°C° 0 mm 4 mps 751 mmHg 74%
    08:00 +27°C° 0 mm 3 mps 751 mmHg 66%
    09:00 +28°C° 0 mm 3 mps 752 mmHg 58%
    10:00 +30°C° 0 mm 3 mps 751 mmHg 54%
    11:00 +31°C° 0 mm 3 mps 751 mmHg 50%
    12:00 +34°C° 0 mm 3 mps 751 mmHg 46%
    13:00 +34°C° 0 mm 3 mps 751 mmHg 44%
    14:00 +35°C° 0 mm 3 mps 750 mmHg 42%
    15:00 +35°C° 0 mm 2 mps 750 mmHg 39%
    16:00 +34°C° 0 mm 3 mps 750 mmHg 41%
    17:00 +34°C° 0 mm 3 mps 750 mmHg 42%
    18:00 +33°C° 0 mm 3 mps 749 mmHg 43%
    19:00 +30°C° 0 mm 2 mps 750 mmHg 49%
    20:00 +29°C° 0 mm 2 mps 750 mmHg 55%
    21:00 +27°C° 0 mm 2 mps 750 mmHg 61%
    22:00 +26°C° 0 mm 2 mps 750 mmHg 66%
    23:00 +25°C° 0 mm 2 mps 750 mmHg 72%

    28 June, Friday

    Time Temperature Precipitation Wind Pressure Humidity
    00:00 +25°C° 0 mm 2 mps 750 mmHg 77%
    01:00 +24°C° 0 mm 2 mps 750 mmHg 81%
    02:00 +23°C° 0 mm 2 mps 749 mmHg 85%
    03:00 +23°C° 0 mm 2 mps 749 mmHg 90%
    04:00 +23°C° 0 mm 2 mps 749 mmHg 88%
    05:00 +23°C° 0 mm 2 mps 749 mmHg 87%
    06:00 +24°C° 0 mm 2 mps 749 mmHg 86%
    07:00 +26°C° 0 mm 2 mps 749 mmHg 75%
    08:00 +28°C° 0 mm 2 mps 750 mmHg 64%
    09:00 +30°C° 0 mm 2 mps 750 mmHg 53%
    10:00 +32°C° 0 mm 2 mps 750 mmHg 45%
    11:00 +36°C° 0 mm 3 mps 749 mmHg 37%
    12:00 +38°C° 0 mm 3 mps 749 mmHg 29%
    13:00 +39°C° 0 mm 5 mps 749 mmHg 27%
    14:00 +40°C° 0 mm 6 mps 748 mmHg 26%
    15:00 +40°C° 0 mm 7 mps 748 mmHg 24%
    16:00 +38°C° 0 mm 7 mps 748 mmHg 25%
    17:00 +36°C° 0 mm 7 mps 748 mmHg 27%
    18:00 +35°C° 0 mm 7 mps 748 mmHg 29%
    19:00 +33°C° 0 mm 6 mps 748 mmHg 33%
    20:00 +30°C° 0 mm 5 mps 748 mmHg 38%
    21:00 +28°C° 0 mm 4 mps 748 mmHg 42%
    22:00 +28°C° 0 mm 3 mps 748 mmHg 45%
    23:00 +27°C° 0 mm 3 mps 748 mmHg 49%

    29 June, Saturday

    Time Temperature Precipitation Wind Pressure Humidity
    00:00 +26°C° 0 mm 2 mps 748 mmHg 52%
    01:00 +25°C° 0 mm 2 mps 747 mmHg 57%
    02:00 +24°C° 0 mm 2 mps 747 mmHg 63%
    03:00 +23°C° 0 mm 2 mps 747 mmHg 69%
    04:00 +24°C° 0 mm 2 mps 747 mmHg 67%
    05:00 +25°C° 0 mm 2 mps 747 mmHg 65%
    06:00 +26°C° 0 mm 3 mps 748 mmHg 62%
    07:00 +27°C° 0 mm 3 mps 748 mmHg 56%
    08:00 +29°C° 0 mm 3 mps 748 mmHg 50%
    09:00 +31°C° 0 mm 3 mps 748 mmHg 44%
    10:00 +33°C° 0 mm 3 mps 748 mmHg 41%
    11:00 +34°C° 0 mm 3 mps 748 mmHg 39%
    12:00 +36°C° 0 mm 3 mps 748 mmHg 36%
    13:00 +36°C° 0 mm 4 mps 748 mmHg 34%
    14:00 +36°C° 0 mm 4 mps 747 mmHg 33%
    15:00 +37°C° 0 mm 5 mps 747 mmHg 32%
    16:00 +35°C° 0 mm 6 mps 747 mmHg 35%
    17:00 +34°C° 0 mm 6 mps 747 mmHg 37%
    18:00 +32°C° 0 mm 6 mps 747 mmHg 40%
    19:00 +30°C° 0 mm 5 mps 747 mmHg 45%
    20:00 +28°C° 0 mm 3 mps 748 mmHg 51%
    21:00 +26°C° 0 mm 1 mps 748 mmHg 56%
    22:00 +26°C° 0 mm 3 mps 748 mmHg 56%
    23:00 +26°C° 0 mm 4 mps 748 mmHg 56%
    Show more